Regional Weather Roundup
Issued by NWS Kansas City/Pleasant Hill, MO

Home | Current Version | Previous Version | Graphics & Text | Print | Product List | Glossary Off
Versions: 1 2 3 4 5 6 7 8 9 10 11 12 13 14 15 16 17 18 19 20 21 22 23 24 25 26 27 28 29 30 31 32 33 34 35 36 37 38 39 40 41 42 43 44 45 46 47 48 49 50

000
ASUS43 KEAX 160410
RWREAX

WEATHER ROUNDUP FOR EASTERN KANSAS AND NORTHWEST MISSOURI
NATIONAL WEATHER SERVICE KANSAS CITY/PLEASANT HILL MO
1100 PM CDT MON SEP 15 2014

KSZ040-057-103>105-MOZ028-029-037-043-160500-
...KANSAS CITY METROPOLITAN AREA...

CITY           SKY/WX    TMP DP  RH WIND       PRES   REMARKS
K.C. INTL      CLEAR     53  50  89 NE7       30.24R
K.C. DOWNTOWN  CLEAR     56  50  80 NE6       30.24R
LEES SUMMIT    PTCLDY    56  51  84 NE6       30.25R
OLATHE - IXD   CLEAR     51  49  92 NE3       30.25R
OLATHE - OJC   CLEAR     55  50  83 NE5       30.23R
LAWRENCE       CLEAR     51  48  89 CALM      30.25R

$$

MOZ001>008-011>017-020>025-030>033-038>040-044>046-053-054-160500-
...NORTHERN AND CENTRAL MISSOURI...

CITY           SKY/WX    TMP DP  RH WIND       PRES   REMARKS
ST. JOSEPH     MOCLDY    53  49  86 N7        30.26R
MOSBY          CLEAR     52  50  93 CALM      30.25R
WHITEMAN AFB   CLOUDY    58  53  83 N8        30.22R
CLINTON        CLOUDY    61  55  82 N12       30.22R
SEDALIA        CLOUDY    60  54  80 N8        30.22R
WARSAW         NOT AVBL
MARSHALL       CLEAR     57  54  88 N6        30.23S
CHILLICOTHE      N/A     53  51  93 CALM      30.26R
MOBERLY        CLOUDY    57  50  77 N10       30.22R
KIRKSVILLE     CLOUDY    55  52  89 N3        30.24R

$$

MOZ041-047>049-056>058-063>065-088>090-097-160500-
...EASTERN AND SOUTHERN MISSOURI...

CITY           SKY/WX    TMP DP  RH WIND       PRES   REMARKS
ST. LOUIS INTL MOCLDY    62  58  86 N7        30.17R
SPIRIT OF STL  CLOUDY    63  59  87 N3        30.17R
COLUMBIA       CLOUDY    61  57  87 N8        30.20R
JEFFERSON CITY CLOUDY    64  58  80 N12       30.19R
MEXICO         CLOUDY    61  61 100 N7        30.20R
ROLLA          CLOUDY    62  57  83 NE7       30.17R
LEBANON        MOCLDY    64  59  82 N10       30.20R
OSAGE BEACH    MOCLDY    63  57  82 CALM      30.19R
SPRINGFIELD    CLOUDY    68  64  87 N12       30.17R
BRANSON        CLOUDY    72  66  83 N6        30.16S
JOPLIN         CLOUDY    66  64  93 NE8       30.19R
WEST PLAINS    MOCLDY    70  66  87 N6        30.16R

$$

IAZ060-094-KSZ022-034>040-054-083-096-NEZ052-066-093-160500-
...KANSAS...SOUTHEAST NEBRASKA AND IOWA...

CITY           SKY/WX    TMP DP  RH WIND       PRES   REMARKS
TOPEKA         CLEAR     54  52  93 N3        30.25R
MANHATTAN      CLEAR     55  49  80 NE6       30.25R
EMPORIA        MOCLDY    58  52  80 NE12      30.23R
CHANUTE        CLOUDY    67  60  78 NE7       30.20R
WICHITA        MOCLDY    67  56  67 NE14      30.21R
OMAHA          CLEAR     50  46  86 CALM      30.27S
LINCOLN        CLEAR     51  44  77 NW3       30.28R
FALLS CITY     CLEAR     51  46  83 N3        30.26R
LAMONI         CLEAR     49  46  90 NW3       30.25R
DES MOINES     CLEAR     52  45  77 CALM      30.25R

$$




USA.gov is the U.S. government's official web portal to all federal, state and local government web resources and services.